Location: Arrodets-la-Barthe
(43.0306°N, 0.2829°E)
Time: 17:10:39
(UTC+00:00)

Lacrosse 4 Rocket - Pass Details

Date: 04 June 2022
Orbit: 541 x 611 km, 68.0° (Epoch: 30 June)

Event Time Altitude Azimuth Distance (km) Brightness Sun altitude
Exits shadow 03:38:20 - 267° (W) 2,441 4.1 -7.1°
Reaches altitude 10° 03:40:38 10° 289° (WNW) 1,875 3.7 -6.8°
Maximum altitude 03:42:34 13° 316° (NW) 1,689 3.8 -6.6°
Drops below altitude 10° 03:44:30 10° 344° (NNW) 1,860 4.3 -6.3°
Sets 03:47:52 0° 14° (NNE) 2,745 5.8 -5.8°
